FW8901 Weather Reports


Display with metric or nautical units.
time (UTC)temp
F
wind
direction
speed
MPH
gust
MPH
rain 1hr
in
rain 24hr
in
rain mn
in
humidity
%
barometer
mb
20260902165048 91 0.0 0.0 0.00 0.00 0.00 62 1018.7
20260902164558 92 0.0 0.0 0.00 0.00 0.00 60 1018.5
20260902164047 92 0.0 0.0 0.00 0.00 0.00 61 1018.5
20260902163549 91 0.0 0.0 0.00 0.00 0.00 61 1018.7
20260902163106 91 0.0 0.0 0.00 0.00 0.00 62 1018.7
20260902162549 90 0.0 0.0 0.00 0.00 0.00 61 1018.7
20260902162048 90 0.0 0.0 0.00 0.00 0.00 61 1018.8
20260902161602 91 0.0 0.0 0.00 0.00 0.00 61 1018.8
20260902161048 90 0.0 0.0 0.00 0.00 0.00 63 1018.8
20260902160547 90 0.0 0.0 0.00 0.00 0.00 63 1018.7
20260902160100 89 0.0 0.0 0.00 0.00 0.00 64 1018.7
20260902155554 89 0.0 0.0 0.00 0.00 0.00 66 1018.8
20260902155049 88 0.0 0.0 0.00 0.00 0.00 68 1018.7
20260902154605 88 0.0 0.0 0.00 0.00 0.00 68 1018.7
20260902154049 87 0.0 0.0 0.00 0.00 0.00 67 1018.7
20260902153545 87 0.0 0.0 0.00 0.00 0.00 70 1018.7
20260902153059 87 0.0 0.0 0.00 0.00 0.00 68 1018.7
20260902152547 86 0.0 0.0 0.00 0.00 0.00 70 1018.6
20260902152047 86 0.0 0.0 0.00 0.00 0.00 70 1018.7
20260902151607 86 0.0 0.0 0.00 0.00 0.00 69 1018.9
20260902151048 85 0.0 0.0 0.00 0.00 0.00 72 1018.9
20260902150547 85 0.0 0.0 0.00 0.00 0.00 73 1018.8
20260902145551 84 0.0 0.0 0.00 0.00 0.00 71 1018.8
20260902145049 84 0.0 0.0 0.00 0.00 0.00 74 1018.9
20260902144600 84 0.0 0.0 0.00 0.00 0.00 74 1018.9
20260902144046 83 0.0 0.0 0.00 0.00 0.00 73 1018.7
20260902143548 83 0.0 0.0 0.00 0.00 0.00 74 1018.8
20260902143108 83 0.0 0.0 0.00 0.00 0.00 75 1018.7
20260902142548 82 0.0 0.0 0.00 0.00 0.00 77 1018.7
20260902142048 82 0.0 0.0 0.00 0.00 0.00 77 1018.7
20260902141606 81 0.0 0.0 0.00 0.00 0.00 80 1018.7
20260902141047 81 0.0 0.0 0.00 0.00 0.00 79 1018.7
20260902140549 81 0.0 0.0 0.00 0.00 0.00 81 1018.6
20260902140124 80 0.0 0.0 0.00 0.00 0.00 81 1018.6
20260902135549 80 0.0 0.0 0.00 0.00 0.00 82 1018.6
20260902135047 79 0.0 0.0 0.00 0.00 0.00 84 1018.5
20260902134607 78 0.0 0.0 0.00 0.00 0.00 86 1018.6
20260902134046 78 0.0 0.0 0.00 0.00 0.00 86 1018.6
20260902133546 78 0.0 0.0 0.00 0.00 0.00 86 1018.6
20260902133105 78 0.0 0.0 0.00 0.00 0.00 86 1018.5
20260902132547 77 0.0 0.0 0.00 0.00 0.00 87 1018.5
20260902132049 76 0.0 0.0 0.00 0.00 0.00 90 1018.5
20260902131607 76 0.0 0.0 0.00 0.00 0.00 90 1018.5
20260902131047 75 0.0 0.0 0.00 0.00 0.00 91 1018.5
20260902130550 75 0.0 0.0 0.00 0.00 0.00 91 1018.5
20260902130105 75 0.0 0.0 0.00 0.00 0.00 91 1018.4
20260902125546 75 0.0 0.0 0.00 0.00 0.00 91 1018.5
20260902125047 75 0.0 0.0 0.00 0.00 0.00 91 1018.4
20260902124608 74 0.0 0.0 0.00 0.00 0.00 91 1018.4
20260902124047 74 0.0 0.0 0.00 0.00 0.00 91 1018.3
20260902123548 74 0.0 0.0 0.00 0.00 0.00 91 1018.5
20260902123103 74 0.0 0.0 0.00 0.00 0.00 91 1018.4
20260902122551 74 0.0 0.0 0.00 0.00 0.00 90 1018.6
20260902122047 74 0.0 0.0 0.00 0.00 0.00 90 1018.6
20260902121607 73 0.0 0.0 0.00 0.00 0.00 90 1018.5
20260902121047 73 0.0 0.0 0.00 0.00 0.00 89 1018.5
20260902120547 73 0.0 0.0 0.00 0.00 0.00 89 1018.5
20260902120055 73 0.0 0.0 0.00 0.00 0.00 89 1018.4
20260902115547 73 0.0 0.0 0.00 0.00 0.00 88 1018.3
20260902115051 73 0.0 0.0 0.00 0.00 0.00 88 1018.2
20260902114601 73 0.0 0.0 0.00 0.00 0.00 88 1018.0
20260902114049 73 0.0 0.0 0.00 0.00 0.00 88 1018.0
20260902113551 73 0.0 0.0 0.00 0.00 0.00 88 1018.0
20260902113109 73 0.0 0.0 0.00 0.00 0.00 88 1018.0
20260902112549 73 0.0 0.0 0.00 0.00 0.00 88 1018.1
20260902112046 73 0.0 0.0 0.00 0.00 0.00 88 1018.0
20260902111605 73 0.0 0.0 0.00 0.00 0.00 88 1018.1
20260902111051 73 0.0 0.0 0.00 0.00 0.00 88 1018.1
20260902110551 73 0.0 0.0 0.00 0.00 0.00 88 1018.1
20260902110057 73 0.0 0.0 0.00 0.00 0.00 88 1018.1
20260902105547 73 0.0 0.0 0.00 0.00 0.00 87 1018.0
20260902105059 73 0.0 0.0 0.00 0.00 0.00 87 1017.9
20260902104602 74 0.0 0.0 0.00 0.00 0.00 87 1018.0
20260902104048 74 0.0 0.0 0.00 0.00 0.00 87 1018.0
20260902103547 74 0.0 0.0 0.00 0.00 0.00 87 1017.9
20260902103059 74 0.0 0.0 0.00 0.00 0.00 87 1017.9
20260902102549 74 0.0 0.0 0.00 0.00 0.00 86 1017.9
20260902102055 74 0.0 0.0 0.00 0.00 0.00 86 1017.8
20260902101604 74 0.0 0.0 0.00 0.00 0.00 86 1017.7
20260902101047 74 0.0 0.0 0.00 0.00 0.00 86 1017.7
20260902100547 75 0.0 0.0 0.00 0.00 0.00 86 1017.7
20260902100112 75 0.0 0.0 0.00 0.00 0.00 86 1017.6
20260902095548 75 0.0 0.0 0.00 0.00 0.00 86 1017.6
20260902095050 75 0.0 0.0 0.00 0.00 0.00 86 1017.6
20260902094600 75 0.0 0.0 0.00 0.00 0.00 86 1017.5
20260902094048 75 0.0 0.0 0.00 0.00 0.00 86 1017.6
20260902093548 75 0.0 0.0 0.00 0.00 0.00 86 1017.6
20260902093058 75 0.0 0.0 0.00 0.00 0.00 86 1017.6
20260902092552 75 0.0 0.0 0.00 0.00 0.00 86 1017.6
20260902092051 75 0.0 0.0 0.00 0.00 0.00 86 1017.5
20260902091606 75 0.0 0.0 0.00 0.00 0.00 86 1017.6
20260902091051 75 0.0 0.0 0.00 0.00 0.00 86 1017.5
20260902090548 75 0.0 0.0 0.00 0.00 0.00 85 1017.4
20260902090059 75 0.0 0.0 0.00 0.00 0.00 86 1017.4
20260902085548 75 0.0 0.0 0.00 0.00 0.00 85 1017.4
20260902085055 75 0.0 0.0 0.00 0.00 0.00 85 1017.4
20260902084603 75 0.0 0.0 0.00 0.00 0.00 85 1017.3
20260902084048 75 0.0 0.0 0.00 0.00 0.00 85 1017.4
20260902083548 75 0.0 0.0 0.00 0.00 0.00 85 1017.4
20260902083105 75 0.0 0.0 0.00 0.00 0.00 85 1017.5
20260902082548 75 0.0 0.0 0.00 0.00 0.00 84 1017.5
20260902082047 75 0.0 0.0 0.00 0.00 0.00 84 1017.4
20260902081609 75 0.0 0.0 0.00 0.00 0.00 84 1017.5
20260902081049 76 0.0 0.0 0.00 0.00 0.00 84 1017.6
20260902080549 76 0.0 0.0 0.00 0.00 0.00 84 1017.6
20260902080059 76 0.0 0.0 0.00 0.00 0.00 84 1017.7
20260902075547 76 0.0 0.0 0.00 0.00 0.00 83 1017.7
20260902075045 76 0.0 0.0 0.00 0.00 0.00 83 1017.6
20260902074600 76 0.0 0.0 0.00 0.00 0.00 83 1017.6
20260902074049 76 0.0 0.0 0.00 0.00 0.00 83 1017.5
20260902073547 76 0.0 0.0 0.00 0.00 0.00 83 1017.6
20260902073106 76 0.0 0.0 0.00 0.00 0.00 83 1017.5
20260902072545 76 0.0 0.0 0.00 0.00 0.00 83 1017.5
20260902072047 76 0.0 0.0 0.00 0.00 0.00 83 1017.6
20260902071600 77 0.0 0.0 0.00 0.00 0.00 83 1017.4
20260902071049 77 0.0 0.0 0.00 0.00 0.00 83 1017.3
20260902070547 77 0.0 0.0 0.00 0.00 0.00 83 1017.4
20260902070117 77 0.0 0.0 0.00 0.00 0.00 83 1017.3
20260902065547 77 0.0 0.0 0.00 0.00 0.00 82 1017.2
20260902065048 77 0.0 0.0 0.00 0.00 0.00 81 1017.2
20260902064611 77 0.0 0.0 0.00 0.00 0.00 81 1017.2
20260902064047 77 0.0 0.0 0.00 0.00 0.00 81 1017.2
20260902063545 77 0.0 0.0 0.00 0.00 0.00 81 1017.1
20260902063103 77 0.0 0.0 0.00 0.00 0.00 82 1017.2
20260902062551 77 0.0 0.0 0.00 0.00 0.00 82 1017.0
20260902062051 77 0.0 0.0 0.00 0.00 0.00 82 1017.0
20260902061048 77 0.0 0.0 0.00 0.00 0.00 84 1016.9
20260902060547 77 0.0 0.0 0.00 0.00 0.00 83 1016.9
20260902060108 77 0.0 0.0 0.00 0.00 0.00 83 1017.0
20260902055549 77 0.0 0.0 0.00 0.00 0.00 83 1016.9
20260902055057 77 0.0 0.0 0.00 0.00 0.00 83 1017.0
20260902054556 77 0.0 0.0 0.00 0.00 0.00 84 1017.1
20260902054047 77 0.0 0.0 0.00 0.00 0.00 84 1017.0
20260902053547 78 0.0 0.0 0.00 0.00 0.00 85 1016.8
20260902053124 78 0.0 0.0 0.00 0.00 0.00 85 1016.8
20260902052549 78 0.0 0.0 0.00 0.00 0.00 84 1016.7
20260902052047 78 0.0 0.0 0.00 0.00 0.00 84 1016.7
20260902051604 78 0.0 0.0 0.00 0.00 0.00 83 1016.8
20260902051050 78 0.0 0.0 0.00 0.00 0.00 83 1016.6
20260902050548 78 0.0 0.0 0.00 0.00 0.00 84 1016.8
20260902050121 78 0.0 0.0 0.00 0.00 0.00 84 1016.8
20260902045547 78 0.0 0.0 0.00 0.00 0.00 85 1016.8
20260902045050 78 0.0 0.0 0.00 0.00 0.00 85 1016.8
20260902044607 78 0.0 0.0 0.00 0.00 0.00 85 1016.8
20260902044047 78 0.0 0.0 0.00 0.00 0.00 85 1016.7
20260902043552 78 0.0 0.0 0.00 0.00 0.00 85 1016.7
20260902043107 78 0.0 0.0 0.00 0.00 0.00 86 1016.8
20260902042625 78 0.0 0.0 0.00 0.00 0.00 86 1016.8
20260902042048 78 0.0 0.0 0.00 0.00 0.00 86 1017.1
20260902041624 78 0.0 0.0 0.00 0.00 0.00 86 1017.0
20260902041047 78 0.0 0.0 0.00 0.00 0.00 86 1017.0
20260902040547 78 0.0 0.0 0.00 0.00 0.00 86 1016.9
20260902040100 78 0.0 0.0 0.00 0.00 0.00 85 1016.8
20260902035548 78 0.0 0.0 0.00 0.00 0.00 85 1016.8
20260902035047 78 0.0 0.0 0.00 0.00 0.00 85 1016.6
20260902034558 79 0.0 0.0 0.00 0.00 0.00 85 1016.5
20260902034050 79 0.0 0.0 0.00 0.00 0.00 85 1016.5
20260902033550 79 0.0 0.0 0.00 0.00 0.00 85 1016.4
20260902033114 79 0.0 0.0 0.00 0.00 0.00 85 1016.3
20260902032548 79 0.0 0.0 0.00 0.00 0.00 85 1016.3
20260902032047 79 0.0 0.0 0.00 0.00 0.00 85 1016.3
20260902031603 79 0.0 0.0 0.00 0.00 0.00 84 1016.2
20260902031048 80 0.0 0.0 0.00 0.00 0.00 84 1016.2
20260902030548 80 0.0 0.0 0.00 0.00 0.00 84 1016.2
20260902030107 80 0.0 0.0 0.00 0.00 0.00 84 1016.3
20260902025547 80 0.0 0.0 0.00 0.00 0.00 84 1016.3
20260902025051 80 0.0 0.0 0.00 0.00 0.00 84 1016.4
20260902024556 80 0.0 0.0 0.00 0.00 0.00 83 1016.5
20260902024047 80 0.0 0.0 0.00 0.00 0.00 83 1016.6
20260902023547 81 0.0 0.0 0.00 0.00 0.00 83 1016.5
20260902023100 81 0.0 0.0 0.00 0.00 0.00 82 1016.5
20260902022548 81 0.0 0.0 0.00 0.00 0.00 82 1016.5
20260902022048 81 0.0 0.0 0.00 0.00 0.00 82 1016.4
20260902021605 81 0.0 0.0 0.00 0.00 0.00 82 1016.3
20260902021048 81 0.0 0.0 0.00 0.00 0.00 82 1016.2
20260902020548 82 0.0 0.0 0.00 0.00 0.00 82 1016.1
20260902020058 82 0.0 0.0 0.00 0.00 0.00 82 1016.1
20260902015552 82 0.0 0.0 0.00 0.00 0.00 82 1016.0
20260902015047 82 0.0 0.0 0.00 0.00 0.00 82 1016.0
20260902014556 82 0.0 0.0 0.00 0.00 0.00 81 1016.0
20260902014047 82 0.0 0.0 0.00 0.00 0.00 81 1015.9
20260902013547 82 0.0 0.0 0.00 0.00 0.00 81 1015.9
20260902013104 83 0.0 0.0 0.00 0.00 0.00 80 1015.9
20260902012549 83 0.0 0.0 0.00 0.00 0.00 80 1015.7
20260902012047 83 0.0 0.0 0.00 0.00 0.00 80 1015.6
20260902011600 83 0.0 0.0 0.00 0.00 0.00 80 1015.6
20260902011048 83 0.0 0.0 0.00 0.00 0.00 79 1015.4
20260902010548 83 0.0 0.0 0.00 0.00 0.00 79 1015.3
20260902010106 84 0.0 0.0 0.00 0.00 0.00 79 1015.3
20260902005548 84 0.0 0.0 0.00 0.00 0.00 79 1015.3
20260902005050 84 0.0 0.0 0.00 0.00 0.00 79 1015.2
20260902004655 84 0.0 0.0 0.00 0.00 0.00 79 1015.0
20260902004047 85 0.0 0.0 0.00 0.00 0.00 78 1015.0
20260902003548 85 0.0 0.0 0.00 0.00 0.00 78 1014.8
20260902003105 85 0.0 0.0 0.00 0.00 0.00 78 1014.8
20260902002553 85 0.0 0.0 0.00 0.00 0.00 77 1014.7
20260902002048 85 0.0 0.0 0.00 0.00 0.00 77 1014.7
20260902001635 86 0.0 0.0 0.00 0.00 0.00 76 1014.7
20260902001058 86 0.0 0.0 0.00 0.00 0.00 76 1014.6
20260902000549 86 0.0 0.0 0.00 0.00 0.00 76 1014.6
20260902000103 86 0.0 0.0 0.00 0.00 0.00 76 1014.5
20260901235548 87 0.0 0.0 0.00 0.00 0.00 75 1014.5
20260901235045 87 0.0 0.0 0.00 0.00 0.00 75 1014.6
20260901234556 87 0.0 0.0 0.00 0.00 0.00 75 1014.5
20260901234047 87 0.0 0.0 0.00 0.00 0.00 75 1014.6
20260901233552 88 0.0 0.0 0.00 0.00 0.00 75 1014.6
20260901233106 88 0.0 0.0 0.00 0.00 0.00 74 1014.7
20260901232548 88 0.0 0.0 0.00 0.00 0.00 74 1014.7
20260901232048 88 0.0 0.0 0.00 0.00 0.00 73 1014.7
20260901231559 88 0.0 0.0 0.00 0.00 0.00 73 1014.7
20260901231047 89 0.0 0.0 0.00 0.00 0.00 73 1014.9
20260901230549 89 0.0 0.0 0.00 0.00 0.00 73 1014.7
20260901230104 89 0.0 0.0 0.00 0.00 0.00 72 1014.9
20260901225551 89 0.0 0.0 0.00 0.00 0.00 72 1014.8
20260901225049 89 0.0 0.0 0.00 0.00 0.00 72 1014.9
20260901224611 89 0.0 0.0 0.00 0.00 0.00 71 1015.0
20260901224050 89 0.0 0.0 0.00 0.00 0.00 71 1015.0
20260901223600 89 0.0 0.0 0.00 0.00 0.00 72 1015.0
20260901223105 89 0.0 0.0 0.00 0.00 0.00 71 1015.0
20260901222547 89 0.0 0.0 0.00 0.00 0.00 71 1015.1
20260901222048 89 0.0 0.0 0.00 0.00 0.00 72 1015.1
20260901221602 89 0.0 0.0 0.00 0.00 0.00 66 1015.2
20260901221056 89 0.0 0.0 0.00 0.00 0.00 68 1015.2
20260901220549 89 0.0 0.0 0.00 0.00 0.00 69 1015.4
20260901220107 89 0.0 0.0 0.00 0.00 0.00 67 1015.4
20260901215550 90 0.0 0.0 0.00 0.00 0.00 67 1015.3
20260901215046 90 0.0 0.0 0.00 0.00 0.00 66 1015.4
20260901214604 90 0.0 0.0 0.00 0.00 0.00 67 1015.4
20260901214048 91 0.0 0.0 0.00 0.00 0.00 63 1015.5
20260901213547 91 0.0 0.0 0.00 0.00 0.00 61 1015.4
20260901213122 91 0.0 0.0 0.00 0.00 0.00 63 1015.4
20260901212547 91 0.0 0.0 0.00 0.00 0.00 61 1015.3
20260901212047 91 0.0 0.0 0.00 0.00 0.00 60 1015.3
20260901211558 91 0.0 0.0 0.00 0.00 0.00 60 1015.2
20260901211100 91 0.0 0.0 0.00 0.00 0.00 61 1015.1
20260901210547 92 0.0 0.0 0.00 0.00 0.00 61 1015.2
20260901210118 92 0.0 0.0 0.00 0.00 0.00 58 1015.1
20260901205548 92 0.0 0.0 0.00 0.00 0.00 62 1015.2
20260901205048 93 0.0 0.0 0.00 0.00 0.00 58 1015.2
20260901204606 93 0.0 0.0 0.00 0.00 0.00 59 1015.4
20260901204052 93 0.0 0.0 0.00 0.00 0.00 61 1015.3
20260901203547 94 0.0 0.0 0.00 0.00 0.00 55 1015.3
20260901203102 94 0.0 0.0 0.00 0.00 0.00 56 1015.3
20260901202548 94 0.0 0.0 0.00 0.00 0.00 53 1015.4
20260901202047 94 0.0 0.0 0.00 0.00 0.00 52 1015.5
20260901201608 95 0.0 0.0 0.00 0.00 0.00 51 1015.4
20260901201059 96 0.0 0.0 0.00 0.00 0.00 50 1015.4
20260901200547 95 0.0 0.0 0.00 0.00 0.00 51 1015.6
20260901200116 95 0.0 0.0 0.00 0.00 0.00 49 1015.7
20260901195547 97 0.0 0.0 0.00 0.00 0.00 49 1015.8
20260901195049 97 0.0 0.0 0.00 0.00 0.00 48 1015.7
20260901194604 95 0.0 0.0 0.00 0.00 0.00 50 1015.7
20260901194047 96 0.0 0.0 0.00 0.00 0.00 46 1015.8
20260901193548 96 0.0 0.0 0.00 0.00 0.00 48 1015.9
20260901193103 97 0.0 0.0 0.00 0.00 0.00 47 1015.9
20260901192548 98 0.0 0.0 0.00 0.00 0.00 47 1016.0
20260901192052 97 0.0 0.0 0.00 0.00 0.00 47 1016.2
20260901191558 96 0.0 0.0 0.00 0.00 0.00 49 1016.3
20260901191059 96 0.0 0.0 0.00 0.00 0.00 52 1016.4
20260901190547 96 0.0 0.0 0.00 0.00 0.00 50 1016.3
20260901190109 96 0.0 0.0 0.00 0.00 0.00 50 1016.4
20260901185548 96 0.0 0.0 0.00 0.00 0.00 51 1016.5
20260901185047 96 0.0 0.0 0.00 0.00 0.00 50 1016.5
20260901184610 96 0.0 0.0 0.00 0.00 0.00 50 1016.6
20260901184047 96 0.0 0.0 0.00 0.00 0.00 49 1016.5
20260901183546 96 0.0 0.0 0.00 0.00 0.00 49 1016.5
20260901183109 96 0.0 0.0 0.00 0.00 0.00 49 1016.4
20260901182547 96 0.0 0.0 0.00 0.00 0.00 48 1016.4
20260901182047 96 0.0 0.0 0.00 0.00 0.00 51 1016.4
20260901181603 96 0.0 0.0 0.00 0.00 0.00 51 1016.5
20260901181047 95 0.0 0.0 0.00 0.00 0.00 51 1016.6
20260901180549 96 0.0 0.0 0.00 0.00 0.00 50 1016.5
20260901180059 96 0.0 0.0 0.00 0.00 0.00 52 1016.6
20260901175547 95 0.0 0.0 0.00 0.00 0.00 55 1016.6
20260901175050 95 0.0 0.0 0.00 0.00 0.00 57 1016.6
20260901174607 94 0.0 0.0 0.00 0.00 0.00 54 1016.5
20260901174047 94 0.0 0.0 0.00 0.00 0.00 57 1016.6
20260901173546 94 0.0 0.0 0.00 0.00 0.00 56 1016.6
20260901173111 94 0.0 0.0 0.00 0.00 0.00 54 1016.6
20260901172549 93 0.0 0.0 0.00 0.00 0.00 55 1016.7
20260901172047 93 0.0 0.0 0.00 0.00 0.00 57 1016.8
20260901171604 93 0.0 0.0 0.00 0.00 0.00 56 1016.8
20260901171046 93 0.0 0.0 0.00 0.00 0.00 56 1016.9
20260901170547 93 0.0 0.0 0.00 0.00 0.00 57 1016.8
20260901170109 93 0.0 0.0 0.00 0.00 0.00 57 1016.9
20260901165547 92 0.0 0.0 0.00 0.00 0.00 60 1017.0